NOAA 16 DEB, 42400

Orbit data source: Space-Track

NOAA 16 DEB, 42400 is space debris in SSO originally from a launch on Thu, 21 Sep 2000 UTC launched from the Air Force Western Test Range (AFWTR). Debris objects in space refer to the collection of defunct objects orbiting the Earth. Examples of debris include non-operational satellites, rocket bodies, and fragments generated from explosions, collisions, or faulty payload assembly.

Loading next visibility...
Identifier
42400, 2000-055SU
Orbit
SSO
Country
Flag of USUS
Related business
Manufacturer
Unknown
Mission
Spacecraft
Bus & Motor
Unknown
Mass
Unknown
Launch date (UTC)
2000-09-21 (25 years ago)
Launch vehicle
Unknown
Launch site
Air Force Western Test Range (AFWTR)
Object type
Payload
Rocket body
Debris
Shape & HBR
Unknown shape, 0.1 m
Radar Cross Section
Small (<0.1 m²)

Expand to show TLE details & history
Last TLE update: 1 day ago

TLE from 1 day ago
0 NOAA 16 DEB
1 42400U 00055SU  26032.97633248  .00002815  00000-0  12252-2 0  9995
2 42400  98.6512  82.2797 0021332  79.4639 280.8942 14.24700240507365
Epoch: 2026-02-01T23:25Z
TLE epoch observation values (Epoch: 2026-02-01T23:25:55.126Z)
Latitude
-0.00003°
Longitude
-41.37823°
Altitude
809.557 km
Speed
7.45 km/s
True Right ascension
05h 29m 07s
True Declination
0° 00' 00"
Sunlit
Object was in full shadow at epoch
Visualization orbit readout
Latitude
Unknown
Longitude
Unknown
Altitude
Unknown
Speed
Unknown
Apparent Right ascension
Unknown
Apparent Declination
Unknown
Sunlit
N/A
Visualization observer readout
Local Sidereal Time
12:03:35
Azimuth
Unknown
Elevation
Unknown
Doppler factor
Unknown
Orbital elements
Apogee altitude
821.977 km
Perigee altitude
791.324 km
Semi-major axis
7,184.787 km
Eccentricity
0.00213
Inclination
98.6512°
RAAN
82.2797°
Arg. of periapsis
79.4639°
True anomaly
280.65404°
Mean anomaly
280.8942°
Eccentric anomaly
280.77413°
Mean motion
3.56387 °/min
Orbital period
101.01 mins
BSTAR
0.0012252
Loading maneuver chart data...
Computing Atmospheric mass density...
Loading historical data...
Loading historical data...
Loading historical data...
Loading historical data...
Loading historical data...
Loading historical data...
Loading historical data...

Documentation

Showing up to 5 results
|